Weather History for Minneapolis Flying Cloud, MN

Change the Weather History Date:

Tuesday, December 27, 2011

  Actual Average Record
Temperature  
Mean Temperature 31 °F -  
Max Temperature 37 °F 24 °F 73 °F (1996)
Min Temperature 24 °F 9 °F 3 °F (2000)
Degree Days  
Heating Degree Days 34    
Moisture  
Dew Point 19 °F    
Average Humidity 61    
Maximum Humidity 73    
Minimum Humidity 47    
Precipitation  
Precipitation 0.00 in - - ()
Sea Level Pressure  
Sea Level Pressure 29.90 in    
Wind  
Wind Speed 12 mph (NNW)    
Max Wind Speed 16 mph    
Max Gust Speed 26 mph    
Visibility 10 miles    
Events      
Averages and records for this station are not official NWS values.
T = Trace of Precipitation, MM = Missing Value Source: NWS Daily Summary

Daily Weather History Graph

Daily Weather History Graph

Search for Another Location

Airport:

Trip Planner

Search our weather history database for the weather conditions in past years. The results will help you decide how hot, cold, wet, or windy it might be!

Date:

Astronomy

Dec. 27, 2011 Rise Set
Actual Time 7:50 AM CST 4:39 PM CST
Civil Twilight 7:16 AM CST 5:12 PM CST
Nautical Twilight 6:39 AM CST 5:49 PM CST
Astronomical Twilight 6:04 AM CST 6:25 PM CST
Moon 9:38 AM CST (12/27) 8:22 PM CST (12/27)
Length of Visible Light 9h 55m
Length of Day
8h 48m
Waxing Crescent, 11% of the Moon is Illuminated
Dec 27
Waxing Crescent
Jan 1
First Quarter
Jan 9
Full
Jan 16
Last Quarter
Jan 23
New

Hourly Weather History & Observations

Time (CST) Temp. Windchill Dew Point Humidity Pressure Visibility Wind Dir Wind Speed Gust Speed Precip Events Conditions
12:53 AM 37.9 °F 29.6 °F 28.9 °F 70% 29.70 in 10.0 mi WNW 13.8 mph 26.5 mph N/A   Clear
1:36 AM 37.4 °F 29.3 °F 28.4 °F 70% 29.69 in 10.0 mi WNW 12.7 mph 18.4 mph N/A   Mostly Cloudy
1:53 AM 37.0 °F 30.4 °F 28.9 °F 73% 29.72 in 10.0 mi NW 9.2 mph - N/A   Overcast
2:53 AM 37.0 °F 31.0 °F 28.9 °F 73% 29.73 in 10.0 mi WNW 8.1 mph - N/A   Overcast
3:53 AM 37.0 °F 27.7 °F 27.0 °F 67% 29.75 in 10.0 mi NNW 16.1 mph 24.2 mph N/A   Overcast
4:53 AM 35.1 °F 26.4 °F 25.0 °F 67% 29.79 in 10.0 mi NNW 12.7 mph 20.7 mph N/A   Overcast
6:53 AM 33.1 °F 22.6 °F 24.1 °F 70% 29.84 in 10.0 mi NNW 16.1 mph 24.2 mph N/A   Overcast
7:53 AM 30.9 °F 20.7 °F 21.9 °F 69% 29.87 in 10.0 mi NNW 13.8 mph 26.5 mph N/A   Overcast
8:53 AM 30.0 °F 18.7 °F 19.9 °F 66% 29.93 in 10.0 mi NNW 16.1 mph 20.7 mph N/A   Overcast
9:53 AM 30.0 °F 18.7 °F 19.9 °F 66% 29.94 in 10.0 mi NNW 16.1 mph 24.2 mph N/A   Overcast
10:41 AM 30.2 °F 19.3 °F 17.6 °F 60% 29.92 in 10.0 mi North 15.0 mph 24.2 mph N/A   Scattered Clouds
10:53 AM 30.9 °F 21.2 °F 18.0 °F 59% 29.94 in 10.0 mi North 12.7 mph 21.9 mph N/A   Clear
11:53 AM 32.0 °F 22.1 °F 18.0 °F 56% 29.95 in 10.0 mi North 13.8 mph - N/A   Clear
12:53 PM 33.1 °F 22.6 °F 17.1 °F 52% 29.95 in 10.0 mi NNW 16.1 mph - N/A   Clear
1:53 PM 32.0 °F 22.1 °F 16.0 °F 52% 29.97 in 10.0 mi NNW 13.8 mph - N/A   Clear
2:53 PM 32.0 °F 23.0 °F 15.1 °F 50% 29.98 in 10.0 mi NNW 11.5 mph - N/A   Clear
3:53 PM 30.9 °F 22.8 °F 12.9 °F 47% 29.99 in 10.0 mi NNW 9.2 mph - N/A   Clear
5:53 PM 27.0 °F 23.0 °F 14.0 °F 58% 30.03 in 10.0 mi NW 3.5 mph - N/A   Clear
8:53 PM 26.1 °F 20.5 °F 10.9 °F 53% 30.06 in 10.0 mi North 4.6 mph - N/A   Clear
9:53 PM 26.1 °F - 12.0 °F 55% 30.06 in 10.0 mi Calm Calm - N/A   Clear
10:53 PM 25.0 °F - 10.9 °F 55% 30.05 in 10.0 mi Calm Calm - N/A   Mostly Cloudy
11:53 PM 24.1 °F - 10.9 °F 57% 30.05 in 10.0 mi Calm Calm - N/A   Scattered Clouds